Theta_e
329 326 325 329 327 328 329 329 330 329 330 330 329 330 330 330 330 330 332 335 337 342 344 348 347 349 353 351 350 351 354 354 357 359 359 359 359 360 360 360 360 359 359 359
326 323 323 325 326 327 328 329 330 330 330 330 330 330 330 331 331 332 333 332 332 336 345 350 350 350 350 352 350 351 354 356 356 359 360 360 360 360 361 360 360 360 360 360
327 325 323 326 326 327 327 328 329 331 330 330 330 330 330 330 331 331 332 333 334 335 340 344 346 348 350 352 351 352 354 357 358 360 361 361 361 361 361 361 361 361 361 361
323 324 327 326 326 326 326 327 327 328 328 329 329 329 329 330 330 330 331 332 334 334 335 336 339 339 342 347 353 354 356 357 358 360 361 362 362 362 362 362 361 362 361 361
321 322 324 324 322 324 326 328 327 328 328 328 327 327 329 328 329 332 332 333 334 333 332 333 335 336 338 345 350 354 357 358 359 359 359 360 363 363 362 361 361 361 360 362
317 321 324 323 323 323 325 332 330 334 334 337 337 330 329 329 329 332 332 332 333 331 331 333 336 338 342 345 348 355 356 357 357 358 359 360 362 362 361 360 360 360 360 361
314 317 319 320 325 330 330 342 337 337 339 340 343 343 343 343 342 340 338 335 334 335 335 335 338 341 343 345 349 352 353 354 356 358 360 360 361 361 361 360 359 360 361 360
314 315 316 316 317 321 326 326 332 333 332 335 336 338 339 341 345 345 343 336 337 341 338 339 347 348 348 356 350 352 353 355 357 359 358 358 361 362 362 361 362 362 361 360
313 313 314 316 317 320 320 322 324 329 330 334 336 338 339 342 347 348 342 342 346 342 344 346 351 349 352 354 353 354 355 357 359 360 360 359 361 362 361 361 359 361 361 360
314 313 314 315 315 317 317 319 323 325 326 329 334 335 338 345 351 347 350 355 354 355 353 356 356 355 355 357 356 356 357 359 360 362 361 361 360 361 361 360 360 359 360 360
315 315 315 314 314 315 317 317 317 320 326 328 329 336 340 350 352 352 357 358 358 358 356 356 356 358 358 357 356 357 359 359 360 360 360 362 361 360 360 359 358 360 360 360
315 314 315 316 315 315 315 314 321 323 328 329 330 339 345 352 353 355 354 350 349 348 347 345 345 347 348 353 358 356 356 355 354 355 357 359 359 361 359 359 359 358 357 356
314 313 314 315 315 316 318 320 322 324 330 333 338 342 347 349 350 349 351 351 349 348 348 349 348 348 347 348 348 349 351 353 354 350 350 351 355 357 359 357 358 358 357 358
311 312 315 314 315 315 317 319 322 323 330 336 338 339 341 343 344 348 348 347 347 344 343 343 344 345 345 346 345 346 342 341 346 347 348 349 348 348 349 350 351 354 346 351
310 311 311 313 315 317 318 322 327 330 332 334 338 339 340 344 343 342 342 341 342 343 344 345 344 342 345 341 344 345 344 344 342 343 343 343 341 336 335 333 331 329 326 325
315 311 310 312 314 315 317 327 330 330 333 334 339 339 340 338 335 333 332 333 335 336 336 340 343 344 342 344 344 343 340 339 340 341 341 340 341 340 335 333 331 331 329 327
315 314 314 316 317 319 325 328 327 330 334 334 335 335 333 332 330 329 329 328 328 328 328 329 335 341 343 343 342 341 340 339 340 342 341 337 338 339 338 336 334 334 329 329
319 320 322 321 323 325 327 327 328 326 327 326 326 326 328 329 330 329 328 327 326 325 326 328 329 335 337 342 341 340 340 341 339 339 339 338 337 337 336 337 336 336 334 331
314 314 315 317 322 324 326 324 323 322 321 321 322 322 322 323 323 323 322 323 324 325 322 326 330 331 332 332 338 339 339 339 340 340 338 336 337 337 336 334 333 332 330 331
314 313 313 313 312 314 317 318 318 319 320 320 320 320 323 321 320 319 319 319 319 319 320 321 326 328 329 330 333 337 338 338 337 336 337 337 336 334 331 328 327 327 330 331
311 311 311 311 311 310 311 312 314 316 317 318 319 318 317 315 314 317 318 319 316 317 318 318 318 324 326 327 330 333 333 334 334 334 335 335 334 333 334 334 332 329 329 330
312 312 312 310 310 310 310 311 312 310 312 312 313 316 317 317 315 312 312 313 312 315 316 317 317 317 319 323 325 326 328 329 327 325 325 327 329 331 331 332 332 331 332 332
311 311 310 310 310 310 310 310 310 310 310 310 312 311 310 309 310 311 312 309 309 309 312 313 316 317 316 315 315 317 318 319 319 322 321 319 319 319 318 320 322 324 324 325
308 309 309 309 309 310 311 310 308 308 308 308 307 306 308 309 309 308 306 306 307 307 306 308 310 313 316 316 312 310 310 313 313 312 313 316 318 318 316 316 316 316 319 319
306 307 307 307 308 308 308 307 308 307 306 305 305 305 305 305 305 304 305 305 304 306 306 305 307 308 310 311 312 311 309 309 309 309 311 312 312 313 314 313 314 315 314 315
302 304 305 305 305 305 306 306 305 304 305 304 303 303 302 302 302 303 303 302 303 303 304 303 303 305 306 306 307 307 307 307 309 309 309 308 309 310 311 312 312 313 312 312
301 299 302 304 304 303 302 302 303 302 302 302 302 301 301 301 300 300 300 300 300 300 301 301 301 301 303 303 303 304 304 305 304 305 306 308 308 307 306 306 307 309 310 310
Wind_Speed
16 4 6 14 28 30 30 27 25 20 21 17 8 8 7 7 10 10 6 5 7 11 12 13 18 23 28 33 33 35 35 38 39 41 38 37 38 39 38 36 38 38 37 36
14 10 8 11 13 15 23 30 27 26 23 11 6 7 16 14 14 14 16 17 14 11 12 12 17 22 26 30 33 34 32 38 35 35 36 38 37 37 37 38 38 38 37 38
15 11 10 15 21 21 19 19 18 23 16 16 18 14 15 15 15 14 14 16 14 12 13 12 16 20 23 29 28 32 35 33 34 34 36 36 35 35 38 39 38 39 39 39
7 7 16 13 8 22 23 20 20 18 16 14 14 15 17 17 17 19 20 20 15 14 15 14 18 19 22 22 28 31 32 33 35 35 34 32 34 38 38 37 38 38 39 40
11 13 9 5 4 8 11 18 18 18 12 15 18 19 20 19 19 19 19 19 18 21 21 18 19 21 20 23 26 29 32 35 35 33 31 31 34 35 31 31 32 34 34 34
8 16 18 4 20 2 2 9 9 4 7 4 7 13 13 15 18 17 16 15 15 23 22 21 20 16 16 21 25 29 33 33 30 31 31 33 32 31 30 30 32 32 34 36
14 14 9 10 9 2 12 5 7 0 3 5 7 8 16 22 22 18 17 17 20 20 19 20 17 17 19 20 26 27 25 26 28 30 31 31 29 31 32 33 32 32 31 33
15 18 24 10 11 13 8 11 9 11 12 12 14 14 15 17 21 20 20 21 21 14 16 15 14 17 18 19 20 20 22 24 25 26 27 27 28 29 30 29 31 32 36 35
12 12 10 9 10 12 15 16 17 18 17 16 18 20 18 18 20 19 18 14 13 13 12 11 12 16 16 16 18 19 21 21 22 23 26 24 27 28 28 30 30 32 32 28
17 20 24 22 18 21 18 20 20 20 22 20 21 21 23 19 17 15 11 9 11 7 8 6 6 10 13 15 17 18 18 18 20 21 22 23 24 26 27 29 30 30 28 25
21 22 23 23 20 21 24 22 25 24 24 21 21 24 23 19 14 12 7 9 5 5 6 7 8 8 9 10 12 14 14 15 16 17 21 20 23 25 28 30 31 29 29 29
20 20 18 19 17 20 24 25 21 20 22 23 20 19 18 16 10 6 7 7 7 8 7 7 9 9 9 8 7 8 9 10 11 12 14 17 18 21 25 27 27 34 33 32
23 26 26 24 22 20 19 20 24 22 21 21 18 11 6 2 4 7 11 9 7 7 6 7 7 8 7 7 8 7 5 2 1 4 7 9 13 14 14 16 29 36 31 32
25 23 25 26 21 21 20 24 25 22 18 16 12 10 8 9 8 9 10 14 13 12 10 8 8 8 8 9 9 10 9 10 5 5 5 5 3 5 7 9 12 15 16 24
25 27 25 23 19 17 18 22 22 17 12 13 12 11 11 15 13 14 20 18 18 17 15 12 10 9 6 7 10 9 10 10 8 6 7 6 7 8 9 8 8 7 5 7
5 21 20 21 20 20 21 24 15 14 14 13 12 14 16 22 23 23 25 23 19 14 19 18 15 11 8 6 6 12 15 14 12 10 11 9 7 8 11 12 12 12 14 14
12 14 17 19 16 17 19 4 4 9 9 8 13 22 24 22 23 23 26 27 27 26 24 22 19 14 11 8 8 9 12 13 9 7 8 6 3 3 6 8 4 3 2 7
18 13 9 11 7 2 10 7 11 10 14 18 14 17 17 19 17 18 24 25 26 28 28 24 22 16 15 13 9 11 11 10 11 9 6 5 5 5 4 1 2 3 1 2
22 16 23 22 6 6 11 15 15 19 25 24 19 15 18 23 23 25 28 30 27 23 25 24 23 21 19 18 7 13 16 17 13 11 8 5 5 8 8 5 4 4 3 4
28 28 30 29 34 25 19 25 29 28 26 25 20 24 15 24 26 27 32 28 26 22 27 31 25 23 17 16 16 14 17 16 14 14 10 9 9 9 8 6 6 11 11 7
24 24 24 21 20 30 31 30 28 23 23 23 21 19 22 28 31 30 27 15 28 24 25 29 27 18 19 16 16 17 17 16 15 13 13 10 9 11 11 8 11 9 10 10
16 16 17 21 19 21 27 26 28 30 29 28 25 24 22 23 27 34 34 26 24 28 27 26 27 29 24 23 22 21 19 17 17 18 19 18 16 13 13 11 12 12 10 9
21 23 24 25 22 19 25 26 28 28 27 26 23 25 24 26 27 22 15 28 28 29 27 28 30 28 30 28 26 24 21 19 19 16 16 17 19 21 21 20 18 19 17 13
25 27 27 26 28 26 18 23 25 24 23 24 25 25 22 21 24 25 25 23 23 26 31 30 29 27 26 26 30 31 24 23 23 24 19 15 14 14 13 16 20 19 16 15
22 22 24 23 19 16 19 18 19 19 21 22 23 23 23 24 24 22 21 21 26 22 22 26 27 27 23 23 22 22 29 31 26 21 20 20 20 19 18 19 19 18 18 16
19 16 16 18 18 18 16 16 17 18 17 18 20 21 21 21 20 18 18 19 19 20 20 21 23 20 20 22 20 20 21 19 21 24 22 20 19 19 20 19 18 19 19 19
14 18 14 14 15 15 16 17 16 17 17 16 16 17 18 18 18 18 18 18 17 17 16 16 16 19 18 17 17 18 17 16 19 17 15 14 15 17 16 15 15 16 16 18
Wind_Direction
249 305 287 233 214 210 216 224 227 227 213 238 214 235 239 277 300 294 264 226 236 227 222 219 215 215 210 214 212 212 210 211 211 212 210 209 208 210 209 208 210 211 209 209
243 223 234 236 236 240 232 228 232 241 248 239 204 291 271 279 281 280 285 280 277 257 226 215 216 214 213 213 214 208 210 212 213 210 209 211 209 207 207 208 209 210 211 209
227 206 253 243 225 220 225 233 236 236 243 251 259 254 253 264 275 275 273 274 272 255 229 232 219 217 217 213 209 208 212 210 212 210 210 210 208 207 209 209 209 211 211 211
254 174 235 246 215 217 225 231 227 246 255 259 250 250 255 260 265 269 267 268 263 252 242 230 242 237 230 220 209 207 208 210 208 210 210 207 205 209 211 210 212 212 213 213
237 226 275 182 174 217 218 230 230 242 252 255 245 246 251 257 258 259 260 263 269 269 271 269 256 247 243 216 209 208 208 208 209 207 208 208 210 213 215 213 215 219 222 222
223 238 232 268 214 194 256 246 243 207 237 289 296 246 249 247 249 280 265 270 274 272 270 261 248 232 212 214 210 210 210 208 206 205 206 208 210 209 211 215 219 220 222 224
227 248 246 267 89 53 199 74 67 214 343 329 298 314 314 309 304 298 296 295 287 277 258 249 243 225 218 213 215 216 212 210 207 206 206 208 207 205 205 207 214 216 222 225
233 242 239 256 287 235 344 320 310 322 317 310 306 303 299 301 297 290 282 277 275 267 248 236 230 220 207 208 211 204 205 206 205 205 207 209 208 208 209 210 211 218 208 216
226 235 270 295 279 310 316 305 301 306 305 311 304 306 308 303 293 284 276 267 261 247 234 222 219 210 198 202 194 193 197 199 204 204 203 207 201 209 211 211 217 218 225 219
268 259 267 274 285 282 289 294 302 302 295 301 301 305 308 305 292 269 260 259 244 228 220 193 186 187 182 174 182 188 193 198 198 197 199 201 203 209 216 216 216 223 221 221
263 256 261 262 262 280 275 275 283 288 290 290 298 300 302 294 280 257 226 226 209 185 159 125 121 127 140 159 173 183 189 194 197 200 198 202 211 212 218 223 223 223 228 223
255 260 266 265 266 263 264 269 282 278 287 282 286 290 283 276 265 215 186 172 159 141 127 112 109 99 87 89 128 152 172 186 196 207 203 214 218 230 235 237 231 235 239 251
264 263 266 264 265 269 273 277 273 274 280 279 281 289 238 70 180 171 155 126 101 103 98 76 65 74 73 73 90 93 99 83 34 264 250 233 235 255 249 237 251 251 259 255
250 256 260 259 254 255 260 262 256 257 266 268 256 232 170 150 166 144 121 107 98 92 82 72 67 66 68 74 81 86 86 69 71 60 42 31 351 316 301 290 291 283 292 275
237 228 236 253 249 256 258 277 264 257 258 244 230 200 157 144 130 119 106 97 86 76 65 67 63 40 42 87 80 84 107 90 90 91 85 90 86 85 78 64 67 55 55 47
248 201 214 237 252 256 263 264 259 258 247 247 192 144 135 121 108 95 88 84 77 64 52 43 47 43 36 55 90 104 97 94 87 82 78 66 67 88 99 101 103 102 104 103
125 168 198 219 227 246 254 300 308 295 197 182 129 118 114 104 96 88 85 79 72 61 51 42 25 27 38 58 80 78 77 81 101 98 80 68 90 130 135 126 152 177 187 149
40 44 207 206 203 260 122 156 76 51 59 62 60 94 92 87 82 80 79 78 70 56 42 35 26 28 34 36 60 90 78 71 75 77 73 58 45 35 36 56 12 340 207 200
40 52 60 53 82 75 65 70 64 66 69 65 54 50 59 79 77 69 64 57 50 43 22 33 32 28 22 18 22 66 77 72 59 53 55 46 21 28 23 1 26 22 356 245
43 41 43 40 38 40 48 51 57 52 59 80 76 68 58 59 62 66 67 61 50 38 38 36 33 29 18 11 27 62 64 68 74 72 47 71 73 62 68 70 83 86 67 77
32 41 44 42 37 34 34 36 44 45 41 45 61 70 65 63 57 58 57 59 40 43 48 46 40 38 28 27 38 54 56 53 49 48 52 62 65 64 64 77 90 94 78 78
29 41 53 53 50 45 42 43 46 44 41 41 35 48 52 61 65 60 53 56 39 48 50 48 46 47 46 46 46 47 49 59 62 54 54 53 48 49 50 51 58 68 72 71
30 39 44 48 54 60 58 50 50 50 47 41 40 48 46 51 48 52 50 45 50 49 50 44 47 51 48 49 47 48 55 55 50 51 50 52 58 59 57 61 60 58 55 50
32 32 31 38 39 40 43 49 56 54 55 53 51 47 43 52 54 56 54 46 50 51 48 45 43 46 53 55 49 45 41 41 48 48 41 42 51 56 45 45 55 58 57 49
25 30 31 31 35 42 44 41 55 56 57 55 50 50 53 54 56 49 45 43 43 46 42 38 42 44 45 47 50 50 44 47 44 43 42 46 51 50 50 49 46 52 53 50
23 21 31 35 35 31 36 48 51 44 49 52 50 48 47 45 45 45 46 42 42 42 41 39 36 37 42 42 43 45 46 38 42 42 39 35 38 42 46 47 47 51 55 56
19 25 17 34 32 42 45 48 50 45 43 46 46 41 40 37 34 32 30 30 29 27 25 26 31 31 31 35 37 36 31 39 37 33 42 41 45 44 36 35 37 39 47 47